Tracking 19817 objects as of 20-Aug-2019
HD Live streaming from Space Station
objects crossing your sky now

SL-3 R/B

Track SL-3 R/B now!
10-day predictions


NORAD ID: 7575
Int'l Code: 1974-099B
Perigee: 826.8 km
Apogee: 899.0 km
Inclination: 81.2 °
Period: 102.1 minutes
Semi major axis: 7233 km
RCS: 7.4067 m2 (large)
Launch date: December 17, 1974
Source: Commonwealth of Independent States (former USSR) (CIS)
Launch site: PLESETSK MISSILE AND SPACE COMPLEX (PKMTR)

Note: This is a ROCKET BODY
aabbcc
Your satellite tracking list
Your tracking list is empty




NASA's NSSDC Master Catalog

Two Line Element Set (TLE):
1  7575U 74099B   19232.51559926 -.00000024  00000-0 -19998-4 0  9990
2  7575  81.2427 259.2261 0049960 177.1511 182.9955 14.11056588298724
Source of the keplerian elements: AFSPC